258P/PanSTARRS (2020)

Japanese version
Home page
Updated on June 14, 2021

---------------------------------------------------------------------

* Profile

* Orbital Elements

Epoch 2020 May 31.0 TT = JDT 2459000.5
T 2020 June 19.61092 TT                                 Rudenko
q   3.4815254            (2000.0)            P               Q
n   0.10671187     Peri.   26.11717     -0.88345944     -0.45883021
a   4.4021099      Node   126.24744     +0.40665245     -0.85139526
e   0.2091235      Incl.    6.74585     +0.23266541     -0.25416717
P   9.24
From 61 observations 2002 Mar. 11-2021 Apr. 16, mean residual 0".4.

* Magnitudes Graph

        m1 = 12.5 + 5 log d + 10.0 log r

---------------------------------------------------------------------

The orbital elements are published on M.P.E.C. 2021-J28.
The magnitudes graphs are made with Comet for Windows.

---------------------------------------------------------------------

Copyright(C) Seiichi Yoshida (comet@aerith.net). All rights reserved.